Theta_e
316 310 310 306 297 292 288 291 293 294 294 301 299 296 295 296 296 292 309 323 331 333 340 347 352 355 355 355 354 353 352 350 349 348 347 347 347 347 347 346 347 346 342 342 339 339 337 336 335
312 312 306 298 290 286 288 291 293 295 297 297 298 297 297 295 302 308 313 321 333 336 342 346 348 353 354 353 352 352 351 350 349 348 346 346 345 345 347 347 348 345 341 339 338 335 334 332 332
311 308 299 293 287 286 288 291 292 296 297 296 300 303 301 298 304 307 314 320 334 337 342 345 347 352 353 352 351 351 351 350 349 347 348 346 346 347 347 345 346 342 335 338 335 332 330 328 328
307 303 297 290 289 290 292 291 293 294 296 297 300 299 298 303 304 310 318 328 331 335 340 343 348 352 352 351 351 351 351 351 350 350 349 346 343 344 343 341 342 339 333 333 332 329 326 324 322
301 296 290 288 289 291 293 294 294 295 294 296 299 294 295 302 312 317 319 330 330 332 337 340 346 349 351 351 351 350 351 350 349 351 348 345 343 340 337 335 339 338 333 332 330 326 323 320 318
298 293 288 286 288 291 293 295 295 293 293 295 300 298 297 304 310 315 319 320 329 332 335 339 339 343 347 349 349 349 349 348 347 348 348 346 343 337 334 334 335 334 335 332 329 324 320 317 314
295 290 287 286 287 291 293 295 298 294 292 298 302 298 298 301 306 310 317 317 323 330 333 336 340 340 339 342 343 345 346 346 346 347 346 344 340 337 335 335 334 335 334 331 329 322 319 315 313
296 292 288 287 287 289 294 295 294 293 293 298 298 294 297 304 304 310 312 313 314 324 331 333 337 340 340 341 336 338 341 343 344 343 340 337 334 334 334 331 333 334 332 331 328 322 319 315 310
296 288 285 287 288 291 295 295 296 295 295 295 297 298 297 302 305 307 307 310 313 317 326 330 334 338 342 342 337 333 335 336 337 336 334 330 329 329 327 326 330 334 332 329 327 322 319 314 308
293 286 288 291 293 294 295 293 294 295 295 293 294 298 299 303 304 305 304 306 308 313 316 326 331 336 339 339 340 338 340 339 336 333 332 328 326 324 324 322 326 330 329 330 326 322 318 305 294
294 290 293 295 296 296 295 294 295 292 293 295 296 297 298 299 301 301 302 301 304 307 312 318 326 330 336 336 338 337 334 336 335 333 328 325 326 323 322 320 320 319 319 317 319 314 305 295 292
294 297 296 298 298 296 294 296 295 295 298 298 298 297 297 295 295 295 294 295 296 299 305 311 320 326 329 335 336 336 334 332 331 326 325 326 324 322 320 319 318 315 312 311 308 305 303 298 295
293 294 296 298 297 295 296 295 294 296 299 298 297 295 295 294 295 295 296 296 296 296 297 298 307 322 326 325 327 333 333 333 332 329 327 326 324 321 319 317 316 314 309 307 305 303 301 295 293
293 294 295 296 296 295 294 292 293 296 295 297 295 294 293 293 293 293 294 295 295 296 297 298 300 317 323 326 323 328 330 332 330 328 324 325 324 321 319 316 313 308 307 305 304 302 299 293 292
295 292 293 293 293 293 294 290 292 296 296 294 293 292 292 293 293 292 293 293 293 295 296 298 302 310 320 322 320 322 322 324 327 325 321 321 322 320 317 316 313 312 307 304 302 299 295 292 291
289 288 286 291 292 293 292 289 295 296 293 292 290 289 291 292 292 292 293 292 293 293 294 297 300 309 316 318 318 319 319 319 319 320 322 322 322 321 316 314 313 312 309 306 300 297 294 292 290
286 282 284 289 293 292 289 288 295 295 294 292 288 289 291 290 291 291 291 291 292 292 294 295 297 299 310 315 317 317 317 318 321 322 321 321 321 319 316 313 312 311 309 306 302 296 294 291 290
283 283 285 285 289 291 288 289 293 293 292 289 288 289 289 289 289 290 290 291 291 291 293 294 296 297 301 308 311 312 312 313 314 316 319 320 320 318 316 313 312 309 307 303 300 298 291 290 290
286 284 284 287 291 288 288 288 290 289 288 287 288 288 288 288 290 290 290 289 290 290 291 292 292 294 296 298 300 303 300 300 303 307 307 310 314 314 314 312 311 307 306 304 301 295 294 289 288
287 285 285 288 290 288 287 287 287 288 287 287 287 287 287 287 287 288 288 287 287 288 289 290 291 291 293 295 295 297 296 296 298 299 299 301 303 306 308 306 305 304 302 300 297 295 293 292 290
286 285 285 287 288 286 284 284 285 287 288 288 288 287 287 286 286 286 286 285 286 285 286 288 289 290 291 292 293 293 293 292 292 293 295 295 295 295 298 301 302 301 299 299 297 295 293 293 291
285 290 288 286 283 280 283 278 282 284 284 285 285 285 285 286 286 286 285 284 284 284 285 287 288 288 289 290 290 289 288 287 288 289 290 291 291 290 291 292 295 298 298 296 295 295 293 292 292
288 288 286 285 282 280 280 278 281 284 282 283 284 285 285 285 285 284 284 285 284 284 283 285 286 286 286 287 287 286 285 286 286 286 286 287 288 288 288 289 289 290 292 293 294 293 292 292 291
289 286 285 282 280 276 280 280 280 282 284 283 285 285 286 285 285 284 285 284 282 282 282 283 284 284 285 284 284 284 283 283 282 283 283 283 285 285 285 286 287 287 288 288 289 289 289 291 291
287 284 279 276 274 276 281 279 282 285 285 286 285 285 285 284 283 283 283 282 282 281 282 283 283 283 283 283 283 282 282 282 281 282 282 282 282 282 283 283 283 284 285 287 287 287 287 287 287
284 285 278 269 273 276 282 279 284 285 286 287 286 285 285 284 284 283 283 282 282 281 281 281 282 282 283 283 283 282 282 281 282 282 282 282 282 282 283 283 283 283 283 284 284 285 285 286 286
285 282 285 279 275 274 278 282 285 285 284 284 284 284 284 284 284 283 282 282 282 281 281 281 281 281 282 283 282 282 283 282 281 281 282 281 282 283 283 283 282 283 283 283 283 283 283 284 285
287 289 281 279 269 267 275 278 280 281 282 283 283 283 283 284 285 283 282 283 283 282 281 282 282 281 282 282 282 282 281 282 282 281 280 280 281 282 282 282 282 282 282 281 281 281 281 282 282
284 283 284 283 277 270 268 275 283 284 285 284 284 284 284 284 284 283 282 282 281 281 280 280 280 280 280 280 280 280 280 281 281 280 280 280 279 279 279 279 279 280 279 279 279 279 280 280 280
285 285 285 280 276 277 277 278 286 286 286 285 284 285 284 283 283 283 281 280 280 279 279 279 280 280 280 280 280 279 279 279 279 279 280 279 279 280 279 279 278 278 279 278 278 277 278 278 279
Wind_Speed
5 5 2 5 5 6 2 1 2 1 2 1 1 2 2 2 3 5 3 8 5 8 10 10 11 13 15 15 13 12 13 12 11 9 8 8 7 8 8 8 8 9 10 7 6 6 6 6 6
3 0 5 3 7 4 5 4 2 2 1 1 1 2 2 2 2 3 1 7 6 9 10 10 11 12 13 15 16 13 12 12 11 10 10 8 7 7 6 7 8 11 7 5 5 6 6 6 6
0 4 5 5 4 4 4 4 3 3 2 1 1 1 2 2 1 3 5 8 7 6 9 10 11 12 11 14 13 12 12 11 11 10 10 10 7 6 7 5 6 6 4 5 4 5 5 5 6
3 5 5 6 2 3 3 4 3 1 2 1 1 1 3 2 2 3 3 7 7 6 6 9 14 13 11 11 13 12 11 13 13 11 11 10 8 7 4 2 2 5 1 1 2 3 4 5 5
5 4 5 4 3 4 3 2 3 3 0 2 2 3 3 2 1 2 5 6 7 6 5 6 13 13 13 12 12 12 12 11 11 12 12 10 9 7 3 2 3 0 2 2 0 1 3 4 4
5 4 5 1 3 4 5 3 2 2 1 2 1 1 4 3 1 3 5 5 5 7 6 6 9 11 12 13 13 13 11 10 12 13 13 12 11 8 4 2 5 5 3 3 2 0 1 2 3
6 4 3 2 3 4 4 8 3 2 1 2 1 2 4 4 6 3 4 5 6 5 5 6 7 9 10 11 11 11 11 9 9 10 11 12 12 11 10 7 6 5 5 6 4 3 2 1 2
6 5 2 2 1 1 4 8 2 2 2 5 4 2 4 3 1 3 1 0 3 5 6 6 7 7 7 7 10 10 10 9 8 9 9 9 10 11 10 9 7 7 7 7 5 4 3 2 1
3 5 1 3 3 3 4 6 3 1 2 4 3 1 3 3 2 2 1 2 3 4 6 6 7 9 9 8 7 9 10 9 9 8 8 6 4 6 8 7 8 6 8 8 6 5 4 1 2
5 4 7 4 3 2 4 1 4 5 6 3 3 7 2 1 0 4 4 6 5 5 5 6 6 9 12 9 9 7 7 7 6 5 5 4 6 5 6 6 7 5 5 5 6 6 3 4 1
3 5 5 4 5 2 2 4 2 2 5 8 7 6 6 4 5 5 7 5 6 6 4 5 5 5 10 10 6 5 3 3 3 5 5 5 4 3 3 2 2 2 3 1 2 1 3 1 1
1 5 4 3 3 0 3 2 4 5 11 2 5 5 5 8 8 8 8 8 9 7 7 6 7 6 7 5 7 6 6 4 3 4 5 4 3 3 3 3 3 2 1 3 3 2 1 2 4
3 3 4 6 7 5 1 7 4 10 13 5 5 10 10 9 9 7 8 8 9 9 8 8 7 9 7 6 4 7 7 5 4 4 5 5 4 4 4 3 3 2 2 3 3 2 1 2 4
2 3 6 7 8 4 5 3 4 7 3 9 9 9 8 10 8 7 11 9 12 12 13 11 9 8 7 8 7 6 5 5 3 4 4 6 5 4 5 4 4 3 3 3 4 4 3 2 2
1 6 8 5 2 4 6 1 7 8 6 7 7 7 8 9 10 10 9 9 11 11 12 14 13 6 7 6 4 4 4 4 6 5 5 6 5 5 5 5 5 4 3 4 3 2 2 1 1
3 3 4 3 1 3 2 8 7 6 5 7 8 8 8 11 10 11 12 11 13 12 14 13 13 12 3 5 5 4 3 2 1 3 3 5 5 5 5 4 4 5 5 4 2 2 2 3 3
5 3 5 9 1 2 2 6 11 4 8 6 8 7 8 10 14 14 13 12 13 12 14 14 14 13 9 6 5 5 6 3 3 2 1 2 3 3 3 2 2 4 4 4 3 2 2 2 3
6 5 5 6 1 5 4 11 11 10 7 8 8 7 9 11 11 11 12 11 11 11 12 13 12 15 9 6 7 7 8 8 8 7 6 6 3 2 3 2 3 3 3 4 3 3 1 1 2
4 4 5 5 4 2 6 8 6 8 10 8 8 9 9 10 7 9 10 11 11 13 14 15 15 15 11 7 4 6 6 7 10 9 13 12 9 7 5 4 2 2 2 1 3 2 3 0 1
4 4 7 7 2 4 6 10 6 9 6 6 7 7 7 5 8 11 12 13 14 13 14 15 15 15 12 8 4 4 3 5 7 8 12 14 15 13 9 7 5 5 3 3 2 2 1 1 3
3 5 4 6 4 0 5 7 4 4 8 9 8 6 6 6 6 8 10 10 10 14 13 14 14 15 14 12 6 4 4 4 7 9 9 12 13 13 12 12 8 5 4 3 3 2 2 3 1
2 7 3 2 3 3 2 6 5 4 5 5 5 5 5 5 6 6 6 10 10 10 9 11 13 15 14 14 11 14 9 7 4 5 5 7 12 12 11 10 9 9 6 6 3 1 2 1 4
7 3 3 2 3 3 4 1 7 6 4 5 6 5 4 4 5 6 6 6 6 7 7 8 12 14 13 14 13 10 11 6 6 7 12 13 12 13 14 12 9 7 5 5 6 5 3 2 3
5 4 4 4 4 0 6 7 6 6 4 6 6 7 7 6 5 5 5 4 6 6 6 7 11 11 10 11 11 12 11 9 9 9 8 7 7 8 13 13 12 10 9 6 5 4 4 4 3
6 6 4 5 2 6 4 2 9 4 4 9 13 9 7 6 6 6 6 5 6 7 7 7 9 11 8 10 10 9 9 8 10 7 6 8 6 6 9 8 9 8 10 9 8 6 6 4 3
6 7 6 7 3 4 4 7 5 3 6 8 8 8 6 6 5 5 4 5 5 6 7 6 7 8 7 8 8 7 7 5 6 6 5 5 4 4 5 6 6 6 7 7 8 5 4 5 4
5 5 3 6 2 1 5 6 2 5 5 6 7 6 8 7 6 6 5 5 5 6 6 6 7 6 6 7 5 6 6 7 6 6 4 3 5 6 8 8 7 7 7 6 7 5 6 5 4
4 7 5 3 1 5 5 6 7 7 10 8 8 9 8 8 7 7 6 6 4 5 5 5 6 7 6 6 5 5 6 5 5 5 6 5 5 5 7 8 8 8 8 8 7 6 6 5 4
2 2 4 4 5 6 3 7 5 10 13 16 12 10 10 9 8 7 7 6 7 5 5 5 6 6 6 5 4 6 4 5 4 4 4 5 4 5 6 7 7 7 7 7 7 8 9 10 9
3 7 8 7 7 4 3 11 3 5 10 9 9 11 7 6 8 7 8 7 6 5 4 4 4 4 4 4 4 4 5 5 5 5 6 6 7 6 6 7 7 8 8 6 6 7 7 10 11
Wind_Direction
324 335 77 40 55 64 330 311 295 291 318 216 91 118 169 183 159 206 290 191 141 148 168 180 186 177 171 170 160 160 155 157 155 149 140 134 134 135 134 131 126 101 79 70 73 74 68 64 68
324 77 44 80 81 66 281 265 241 243 288 75 92 89 33 273 238 285 84 195 176 154 166 176 179 177 186 166 158 162 159 164 162 158 152 141 142 153 148 157 152 111 98 69 71 72 69 52 45
194 41 77 87 102 155 194 236 236 306 343 3 24 79 171 259 300 226 237 166 143 156 164 174 176 178 175 159 156 162 163 169 170 170 166 152 127 118 149 141 117 91 60 73 62 55 45 45 37
47 13 37 79 153 239 217 232 219 333 315 56 32 12 314 351 312 267 93 142 146 162 166 173 179 178 171 163 164 172 182 187 172 186 173 148 144 128 103 51 36 92 127 22 48 46 40 26 25
33 51 56 86 282 268 263 244 185 144 351 324 18 321 282 345 329 100 123 145 161 167 167 171 182 181 175 175 176 182 199 193 184 174 160 162 161 151 150 359 12 97 210 227 292 28 31 28 22
39 89 57 177 272 281 304 336 314 62 5 307 314 356 265 306 260 195 146 178 180 170 171 171 187 185 183 183 183 186 197 202 192 174 168 167 170 161 133 240 234 221 179 202 181 172 36 30 43
101 75 179 194 275 335 330 333 331 69 360 256 206 326 293 318 236 210 194 164 188 181 170 179 188 195 192 188 187 187 193 205 188 182 174 170 162 157 166 180 208 206 187 214 191 194 180 153 92
101 90 90 272 273 269 311 337 334 53 291 321 167 252 302 300 23 138 163 292 171 198 195 192 192 192 192 196 192 190 191 195 195 188 185 174 167 162 166 174 203 223 218 216 195 203 203 167 92
112 62 214 245 158 276 315 13 301 287 259 360 294 217 307 325 73 83 28 314 275 242 221 198 192 194 197 199 202 196 195 198 198 197 192 177 173 170 168 168 197 219 215 218 201 209 210 111 20
83 114 217 221 172 264 305 321 329 356 334 285 305 312 257 332 214 244 248 256 272 267 262 221 204 201 200 202 202 201 214 202 194 195 192 171 171 166 166 171 185 210 182 215 204 211 158 66 352
159 191 201 251 221 197 266 291 186 276 287 231 268 302 320 322 319 310 294 301 278 261 258 252 251 213 206 211 206 205 201 166 184 191 168 168 162 149 138 140 165 156 191 172 170 12 69 340 316
241 245 220 265 183 146 245 272 286 225 247 113 9 315 336 12 23 19 10 358 344 319 301 278 222 212 211 210 209 209 209 205 181 170 155 157 146 152 155 163 175 173 169 176 152 139 145 300 317
199 272 295 274 284 241 209 247 237 264 269 349 70 51 44 40 23 13 356 352 345 350 329 317 278 218 197 187 186 208 213 202 182 158 173 156 162 171 151 169 158 180 160 171 171 160 188 276 305
209 262 267 278 267 258 224 263 148 280 332 62 78 61 47 42 20 10 11 0 357 339 338 322 308 231 184 190 177 189 193 198 169 184 184 167 164 185 162 175 175 187 187 184 181 182 191 247 308
314 321 326 266 268 215 163 310 229 250 8 31 80 61 48 34 28 22 355 353 352 345 335 343 333 268 189 180 151 146 145 153 193 192 184 183 182 186 180 176 171 185 180 177 151 151 142 218 265
15 42 340 298 335 12 114 269 279 303 13 55 83 53 38 29 24 13 6 3 357 355 357 352 0 358 68 116 117 107 103 113 164 195 192 197 198 179 174 170 191 174 161 161 184 174 213 230 215
4 233 213 312 341 111 127 275 269 309 14 5 80 60 47 29 21 13 10 8 3 358 0 8 13 15 10 63 77 80 87 62 34 17 315 252 232 204 200 205 166 145 159 162 170 197 192 216 236
213 222 247 249 170 9 307 252 280 324 7 91 90 70 58 45 21 9 13 13 12 13 16 17 20 20 17 34 56 55 46 44 33 26 13 359 317 251 187 188 182 148 165 136 157 195 163 163 230
137 188 236 253 266 316 255 265 324 351 51 69 69 69 59 42 359 17 20 19 20 24 27 27 29 18 25 18 24 38 44 28 36 32 27 24 22 17 354 358 26 125 173 231 136 128 199 266 113
227 222 258 286 269 169 305 290 62 39 49 60 76 71 67 57 28 24 23 22 21 21 19 27 32 29 28 32 20 45 52 45 49 37 35 28 26 26 32 30 22 18 3 38 139 154 143 244 195
217 197 223 239 336 2 344 297 170 62 83 73 61 67 58 57 47 27 27 21 23 35 16 28 30 38 36 28 27 30 58 47 29 25 30 27 32 34 31 27 26 34 35 357 345 316 242 306 239
251 215 213 185 59 251 36 281 307 130 88 65 81 88 85 66 53 43 29 35 28 23 16 39 45 41 37 38 47 54 57 50 4 10 20 27 26 27 26 31 27 28 18 12 348 328 267 204 271
224 147 135 133 137 66 300 213 258 136 181 174 173 148 124 105 92 71 52 46 35 26 25 38 53 53 51 54 58 59 57 46 38 37 34 25 24 25 19 15 15 31 30 13 3 355 317 246 269
136 117 67 58 111 208 229 181 264 190 195 156 176 171 159 135 106 86 73 59 54 42 42 40 61 55 49 57 61 69 69 57 52 37 42 34 28 22 20 17 14 8 5 9 5 358 353 322 290
76 66 319 334 339 224 136 153 248 301 310 177 167 171 169 153 143 137 123 103 77 59 58 64 61 59 48 60 57 62 68 63 56 43 37 26 19 20 7 11 15 11 2 358 356 1 358 354 323
168 156 168 225 221 287 326 235 268 4 355 112 134 154 161 168 168 157 138 102 90 77 69 68 66 66 53 58 59 47 49 62 61 45 34 30 24 10 357 7 8 359 354 357 352 356 359 351 340
178 162 172 106 360 324 245 300 160 87 64 113 151 167 188 182 182 168 151 131 131 114 104 103 99 93 75 73 67 59 52 57 51 36 41 11 9 8 360 0 3 356 349 349 345 338 343 346 341
151 157 96 7 243 260 280 266 232 195 187 189 190 200 200 200 179 172 173 153 123 135 135 113 102 95 89 82 73 70 61 52 48 33 22 8 353 356 349 346 346 344 344 340 343 335 323 326 323
122 169 75 125 144 180 270 259 219 190 186 192 199 201 203 198 186 176 163 167 166 158 144 135 112 107 98 90 81 75 64 48 38 31 7 1 337 348 339 334 333 334 328 322 324 321 322 326 322
231 189 154 178 230 240 157 262 11 192 187 168 196 209 203 178 189 176 172 172 174 170 156 138 125 120 131 131 108 72 53 31 21 9 360 351 342 342 326 328 329 327 318 304 302 300 310 307 308